Hourly Data Report for October 04, 2017

All times are specified in Local Standard Time (LST). Add 1 hour to adjust for Daylight Saving Time where and when it is observed.

SUMMERLAND CS
BRITISH COLUMBIA

49°33'45.200" N
119°38'55.300" W
454.20 m
112G8L1
71768
WUS

Download Data

Hourly Data (October 2017)
Hourly Data Report for October 4, 2017
Temp Definition
°C
Dew Point Temp Definition
°C
Rel Hum Definition
%
Wind Dir Definition
10's deg

Wind Spd Definition
km/h
Visibility Definition
km
Stn Press Definition
kPa
Hmdx Definition


Wind Chill Definition


Weather Definition


TIME
00:00 5.4 -3.7 52 29 11   97.23     LegendNANA
01:00 4.4 -4.2 54 29 15   97.27     LegendNANA
02:00 3.8 -4.3 55 29 15   97.26     LegendNANA
03:00 3.3 -4.4 57 28 10   97.25     LegendNANA
04:00 3.4 -5.0 54 28 14   97.24     LegendNANA
05:00 1.9 -5.2 59 28 11   97.20     LegendNANA
06:00 2.8 -5.2 55 28 11   97.20     LegendNANA
07:00 3.3 -5.5 52 29 10   97.21     LegendNANA
08:00 8.0 -4.0 42 28 5   97.18     LegendNANA
09:00 10.0 0.6 52 2 8   97.11     LegendNANA
10:00 10.4 2.3 57 4 14   97.06     LegendNANA
11:00 14.2 -4.5 27 3 9   96.96     LegendNANA
12:00 15.2 -3.3 28 5 8   96.91     LegendNANA
13:00 14.5 1.0 40 5 11   96.86     LegendNANA
14:00 13.6 1.0 42 4 11   96.84     LegendNANA
15:00 14.2 0.6 39 5 7   96.81     LegendNANA
16:00 13.9 1.2 42 5 8   96.80     LegendNANA
17:00 12.0 -0.4 42 2 1   96.79     LegendNANA
18:00 8.6 -0.8 52 27 6   96.83     LegendNANA
19:00 8.4 -1.6 49 29 13   96.85     LegendNANA
20:00 6.8 -2.2 53 29 7   96.87     LegendNANA
21:00 6.4 -2.7 52 29 14   96.88     LegendNANA
22:00 6.5 -3.1 50 28 13   96.90     LegendNANA
23:00 6.3 -3.6 49 28 13   96.89     LegendNANA

Notes on Data Quality.

Legend

  • E = Estimated
  • M = Missing
  • NA = Not Available
  • ‡ = Partner data that is not subject to review by the National Climate Archives
Date modified: